Regional Weather Roundup
Issued by NWS Midland/Odessa, TX

Skip options and go directly to product.
Home | Oldest Version | Next Version | Current Version | All | Text Only | Save Text | Print | Product List | Glossary On

Skip product version selection by date and time.   
664
ASUS44 KMAF 270410
RWRMAF
MIDLAND AREA WEATHER ROUNDUP
NATIONAL WEATHER SERVICE MIDLAND TX
1100 PM CDT TUE MAY 26 2015

...IN SOUTHWEST TEXAS AND SOUTHEAST NEW MEXICO...

CITY           SKY/WX    TMP DP  RH WIND       PRES   REMARKS
ALPINE         CLEAR     66  36  32 N3        30.13R
ANDREWS        FAIR      69  49  48 SE8       30.01R
ARTESIA        CLEAR     73  32  21 W10       29.99R
BIG SPRING     CLEAR     74  64  71 SE8       30.02R
CARLSBAD       CLEAR     71  33  24 W7        29.96R
DRYDEN           N/A     77  64  64 VRB7      29.95R
FORT STOCKTON  CLEAR     75  66  73 SE15G24   29.99R
GUAD PASS      CLEAR     73  23  15 NW7       30.13R
HOBBS          CLEAR     64  46  52 E7        30.03R
MARFA          CLEAR     64  37  36 N10       30.11R
MIDLAND AIRPK  CLEAR     76  66  71 SE9G16    30.01R
MIDLAND INTL   CLEAR     74  66  76 SE10      30.00R
ODESSA         CLEAR     77  62  59 S12       30.01R
PECOS          CLEAR     70  49  47 E7        29.95R
PRESIDIO       FAIR      81  21  11 N14       29.91S
SEMINOLE       CLEAR     65  42  43 CALM      30.02R
SNYDER         CLEAR     69  58  69 S10       29.99R
WINK           CLEAR     71  44  37 SE8       29.95R
$$
...OTHER STATIONS IN TEXAS...

CITY           SKY/WX    TMP DP  RH WIND       PRES   REMARKS
ABILENE        MOCLDY    66  62  87 E17       30.01R
AMARILLO       MOCLDY    67  56  67 E10       30.04R
AUSTIN         PTCLDY    77  75  93 S13       29.96F
BROWNSVILLE    CLOUDY    81  78  91 SE10      29.96R
CORPUS CHRISTI CLOUDY    80  77  90 SE10      29.96R
DALLAS FTW     CLOUDY    66  60  81 S21G26    29.97F THUNDER
DEL RIO        CLOUDY    80  73  79 E8        29.92R
EL PASO        MOCLDY    76  27  16 SE5       30.00R
HOUSTON INT    CLOUDY    78  73  84 SE12      30.02S
LUBBOCK        PTCLDY    66  54  65 NE8       30.02R
SAN ANGELO     CLEAR     73  67  81 SW7       29.96S
SAN ANTONIO    CLOUDY    79  73  82 SE13      30.00R
WACO           CLOUDY    78  72  81 S13G21    30.00R
WICHITA FALLS  NOT AVBL
$$
...OTHER LOCATIONS IN NEW MEXICO...

CITY           SKY/WX    TMP DP  RH WIND       PRES   REMARKS
ALAMAGORDO     PTCLDY    68  32  26 SE3       30.03R
ALBUQUERQUE    PTCLDY    63  45  51 SE12      30.11R
CANNON AFB     CLEAR     65  50  58 SE7       30.05R
CLOVIS         CLEAR     61  52  72 SE6       30.03
HOLLOMAN AFB   PTCLDY    69  35  28 E7        30.01R
ROSWELL        CLEAR     69  42  37 E6        29.98R
RUIDOSO        CLEAR     59  28  31 SW9       30.22R
SANTA FE         N/A     59  37  44 N6        30.16R
TRUTH OR CONSE CLEAR     74  24  15 W9        30.04R
TUCUMCARI      PTCLDY    63  52  67 E5        30.01R
$$

USA.gov is the U.S. government's official web portal to all federal, state and local government web resources and services.